[[{"header":{"parameterUnit":"m.s-1","parameterCategory":2,"la1":30.2991,"la2":30.254,"lo1":-89.0895,"lo2":-89.0444,"dy":0.0017,"dx":0.0017,"nx":28,"ny":28,"refTime":"2024-03-31T03:00:00:Z","depth":"0","parameterNumber":2,"parameterNumberName":"U-component_of_CURRENTS"},"data":[0,0,0,0,0,0,0,0,0,0,0,0,0,0,0,0,0,0,0,0,0,0,0,0,0,0,0,0,0,0,0,0,0,0,0,0,0,0,0,0,0,0,0,0,0,0,0,0,0,0,0,0,0,0,0,0,0,0,0.2621,0.2622,0,0.265,0.265,0.2649,0.2646,0.2646,0.2647,0.2647,0.263,0.263,0.2629,0,0,0,0,0,0,0,0,0,0,0,0,0,0.2571,0.2571,0.2621,0.2622,0.2623,0.265,0.265,0.2649,0.2646,0.2646,0.2647,0.2647,0.2631,0.263,0.2629,0,0,0,0,0,0,0,0,0,0,0,0,0,0.2589,0.2571,0.2621,0.2629,0.2631,0.265,0.265,0.2649,0.2646,0.2646,0.2647,0.2647,0.2631,0.263,0.2629,0.2621,0,0,0.2627,0.2626,0,0,0,0,0,0,0,0,0.2588,0.259,0.2627,0.2629,0.263,0.265,0.2626,0.264,0.2646,0.2634,0.2647,0.2647,0.2637,0.2635,0.2632,0.262,0.2619,0.2627,0.2626,0.2626,0.2626,0,0,0,0,0,0,0,0.2587,0.2589,0.2626,0.2628,0.263,0.2634,0.2636,0.2628,0.2628,0.2635,0.2636,0.2649,0.2636,0.2633,0.2632,0.2619,0.2627,0.2626,0.2625,0.2625,0.2643,0.2644,0,0,0,0,0,0,0.2595,0.2588,0.2625,0.2628,0.2616,0.2635,0.2638,0.2639,0.2629,0.263,0.2649,0.2649,0.2634,0.2633,0.2631,0.2648,0.2626,0.2625,0.2625,0.2642,0.2643,0.2644,0,0,0,0,0,0,0.2594,0.2598,0.2624,0.2614,0.2619,0.2637,0.2638,0.2639,0.2642,0.2642,0.2641,0.2652,0.2634,0.2632,0.2635,0.2646,0.2625,0.2624,0.2641,0.2642,0.2644,0.2663,0,0,0,0,0,0,0.2592,0.2597,0.2596,0.2614,0.262,0.2638,0.2638,0.264,0.2652,0.2652,0.2644,0.2642,0.2634,0.2636,0.2634,0.2644,0.2623,0.264,0.2642,0.2643,0.2661,0.2665,0.2668,0,0,0,0,0,0.259,0.2591,0.2596,0.2601,0.2619,0.2639,0.2641,0.265,0.2652,0.2652,0.2653,0.2642,0.2647,0.2636,0.2634,0.2644,0.2639,0.2641,0.2643,0.266,0.2664,0.2668,0,0,0,0,0,0,0.2563,0.2592,0.2597,0.2605,0.2623,0.264,0.2645,0.2653,0.2653,0.2652,0.2648,0.2646,0.2657,0.2649,0.2638,0.2657,0.2644,0.2645,0.2657,0.2661,0.2665,0.2668,0.2623,0,0,0,0,0,0.256,0.2569,0.2596,0.26,0.2611,0.2628,0.2637,0.2644,0.2653,0.2653,0.2651,0.2653,0.2663,0.2661,0.2664,0.2665,0.2667,0.2674,0.2677,0.268,0.2683,0.2706,0.2711,0.2651,0.2651,0.2651,0,0,0.2549,0.2569,0.2571,0.2596,0.2608,0.2621,0.2631,0.2646,0.2655,0.2651,0.2654,0.2664,0.2669,0.2678,0.2682,0.2671,0.2698,0.2683,0.2685,0.2686,0.2708,0.2714,0.2719,0.2653,0.2653,0.2652,0,0,0.2534,0.255,0.2553,0.2572,0.2601,0.2615,0.2623,0.2643,0.265,0.2658,0.2669,0.2687,0.2683,0.2699,0.2705,0.2729,0.272,0.2731,0.2742,0.2765,0.277,0.2774,0.2778,0.2783,0.2727,0.2727,0.2727,0,0.252,0.253,0.2556,0.2568,0.2585,0.2614,0.2622,0.2636,0.2654,0.2667,0.266,0.2692,0.2695,0.2727,0.2739,0.2736,0.2742,0.2723,0.2769,0.2773,0.2777,0.2781,0.2785,0.2728,0.2728,0.2728,0.2728,0,0.2511,0.2521,0.2527,0.2553,0.2571,0.2585,0.2618,0.2633,0.2647,0.2666,0.2699,0.271,0.273,0.2741,0.2744,0.2784,0.2775,0.2774,0.2755,0.2784,0.2786,0.2791,0.273,0.2729,0.2729,0.2729,0,0,0.2469,0.2512,0.2513,0.2519,0.2568,0.2574,0.2606,0.2642,0.2659,0.2683,0.2705,0.2742,0.2758,0.2768,0.2783,0.2805,0.2838,0.2802,0.2802,0.2801,0.2877,0.2822,0.2821,0.2845,0.2846,0.2847,0.2864,0,0.2453,0.2468,0.2499,0.2506,0.2517,0.2562,0.2585,0.2623,0.2655,0.2682,0.2724,0.2748,0.2766,0.2775,0.2806,0.2836,0.2853,0.2833,0.2853,0.2854,0.2798,0.2826,0.2706,0.2706,0.2868,0.2869,0.2869,0,0.2431,0.2448,0.2456,0.2486,0.2494,0.2505,0.255,0.2578,0.2644,0.2669,0.2718,0.2746,0.2802,0.2798,0.2867,0.2854,0.2867,0.2883,0.2884,0.283,0.2808,0.2706,0.2709,0.2638,0.2876,0.2876,0.2875,0,0.2383,0.2411,0.2415,0.2428,0.2472,0.2482,0.251,0.2573,0.2606,0.2668,0.2697,0.2757,0.2793,0.2829,0.2881,0.2871,0.2943,0.2928,0.2889,0.2885,0.2785,0.2769,0.2716,0.2963,0.2963,0.2963,0.2963,0,0.2357,0.2355,0.2389,0.2392,0.2396,0.2441,0.2466,0.2505,0.2574,0.2616,0.2688,0.2729,0.2806,0.286,0.2884,0.2909,0.2947,0.2896,0.289,0.2787,0.2772,0.2707,0.2674,0.2964,0.2964,0.2964,0.2964,0,0.2305,0.2332,0.2333,0.2368,0.2374,0.2378,0.2441,0.2462,0.254,0.2596,0.2618,0.2724,0.2791,0.2855,0.2918,0.2912,0.2845,0.293,0.2797,0.2774,0.2639,0.2612,0.2473,0.2407,0.2868,0.2867,0.2866,0,0.2282,0.2278,0.2301,0.2301,0.2315,0.2339,0.2356,0.2433,0.2467,0.2591,0.2607,0.2703,0.2753,0.2831,0.2842,0.2859,0.2797,0.2748,0.2704,0.2617,0.2583,0.2497,0.2446,0.2577,0.2574,0.2571,0.2569,0,0.2238,0.2246,0.2251,0.225,0.2255,0.2269,0.2304,0.233,0.2426,0.2475,0.2548,0.2598,0.2691,0.2666,0.2705,0.2701,0.2595,0.2691,0.2638,0.238,0.2245,0.2183,0.2579,0.2545,0.2548,0.2549,0.2551,0.2552,0.2201,0.219,0.2194,0.218,0.2188,0.2184,0.2175,0.2228,0.2263,0.232,0.2433,0.2462,0.2511,0.2544,0.2534,0.2425,0.2428,0.233,0.2314,0.2243,0.2138,0.2474,0.2413,0.2415,0.2416,0.2417,0.2418,0,0.2136,0.2127,0.2121,0.2096,0.2067,0.2098,0.2115,0.2098,0.21,0.2184,0.2233,0.2247,0.2217,0.2243,0.2179,0.2076,0.1996,0.1995,0.1851,0.183,0.2161,0.2109,0.1933,0.1933,0.1933,0.1933,0.1933,0.1933,0.2103,0.2063,0.205,0.1971,0.1952,0.1893,0.1882,0.1878,0.1914,0.1905,0.1899,0.1948,0.2009,0.1967,0.1857,0.1807,0.1678,0.1556,0.1586,0.1828,0.1859,0.1887,0.1831,0.16,0.1599,0.1178,0.1175,0.1172]},{"header":{"parameterUnit":"m.s-1","parameterCategory":2,"la1":30.2991,"la2":30.254,"lo1":-89.0895,"lo2":-89.0444,"dy":0.0017,"dx":0.0017,"nx":28,"ny":28,"refTime":"2024-03-31T03:00:00:Z","depth":"0","parameterNumber":3,"parameterNumberName":"V-component_of_CURRENTS"},"data":[0,0,0,0,0,0,0,0,0,0,0,0,0,0,0,0,0,0,0,0,0,0,0,0,0,0,0,0,0,0,0,0,0,0,0,0,0,0,0,0,0,0,0,0,0,0,0,0,0,0,0,0,0,0,0,0,0,0,0.0369,0.0369,0,0.0346,0.0345,0.0345,0.0319,0.0319,0.0318,0.0318,0.027,0.0269,0.0268,0,0,0,0,0,0,0,0,0,0,0,0,0,0.0365,0.0366,0.0369,0.0369,0.0369,0.0346,0.0345,0.0345,0.0319,0.0319,0.0318,0.0318,0.0271,0.027,0.0268,0,0,0,0,0,0,0,0,0,0,0,0,0,0.0355,0.0366,0.0369,0.0354,0.0353,0.0346,0.0345,0.0345,0.0319,0.0319,0.0318,0.0318,0.0271,0.027,0.0268,0.0265,0,0,0.0263,0.0263,0,0,0,0,0,0,0,0,0.0356,0.0355,0.0357,0.0355,0.0354,0.0336,0.0327,0.0317,0.0319,0.033,0.0318,0.0318,0.0292,0.0288,0.0283,0.0262,0.026,0.0263,0.0262,0.0261,0.0261,0,0,0,0,0,0,0,0.0357,0.0356,0.0358,0.0356,0.0355,0.034,0.0339,0.0325,0.0311,0.0329,0.0327,0.0328,0.029,0.0284,0.0281,0.026,0.0263,0.0262,0.0261,0.026,0.0242,0.0243,0,0,0,0,0,0,0.0365,0.0357,0.0359,0.0357,0.0356,0.0341,0.0339,0.0341,0.0312,0.0308,0.0328,0.0327,0.0287,0.0283,0.0279,0.029,0.0261,0.026,0.0259,0.0242,0.0242,0.0243,0,0,0,0,0,0,0.0365,0.0366,0.0359,0.0358,0.0356,0.0342,0.0344,0.0341,0.0337,0.0312,0.0307,0.0329,0.0287,0.0282,0.0272,0.0287,0.0259,0.0258,0.0241,0.0242,0.0243,0.0301,0,0,0,0,0,0,0.0365,0.0366,0.0369,0.0359,0.0357,0.0364,0.0344,0.034,0.0339,0.0337,0.0311,0.0306,0.0286,0.0275,0.0271,0.0285,0.0256,0.0241,0.0241,0.0242,0.0299,0.0304,0.0308,0,0,0,0,0,0.0365,0.0379,0.037,0.037,0.0363,0.0365,0.0363,0.0349,0.034,0.0344,0.0324,0.0307,0.0278,0.0274,0.0269,0.0283,0.024,0.0241,0.0242,0.0296,0.0303,0.0308,0,0,0,0,0,0,0.0381,0.0377,0.0367,0.0378,0.0374,0.0361,0.0365,0.0355,0.0343,0.0339,0.0312,0.0306,0.0302,0.0284,0.0281,0.028,0.0256,0.0257,0.0299,0.0305,0.031,0.0322,0.0255,0,0,0,0,0,0.0386,0.0393,0.0385,0.0394,0.0393,0.0378,0.0377,0.0369,0.0358,0.0352,0.0334,0.0315,0.0303,0.0298,0.028,0.0282,0.026,0.0287,0.0292,0.0297,0.0303,0.0282,0.0286,0.0246,0.0246,0.0246,0,0,0.0394,0.0394,0.0397,0.0397,0.039,0.0399,0.0376,0.038,0.0388,0.0349,0.0352,0.0329,0.0305,0.0305,0.0302,0.0293,0.0296,0.0298,0.0302,0.0306,0.0284,0.0288,0.0291,0.0247,0.0247,0.0247,0,0,0.0418,0.0414,0.0426,0.0426,0.0424,0.0417,0.0421,0.0411,0.0407,0.0406,0.038,0.0369,0.0349,0.0339,0.033,0.0352,0.0319,0.0346,0.0384,0.0365,0.0368,0.0371,0.0349,0.0349,0.0352,0.0352,0.0352,0,0.0426,0.0443,0.0431,0.0444,0.0452,0.0429,0.0448,0.0442,0.043,0.0435,0.0414,0.0389,0.0367,0.0373,0.0379,0.0364,0.0344,0.0366,0.0372,0.0374,0.0375,0.0352,0.0352,0.0355,0.0355,0.0355,0.0354,0,0.0459,0.0472,0.0482,0.0491,0.0497,0.051,0.0503,0.0506,0.0495,0.0489,0.0487,0.0452,0.044,0.0431,0.041,0.0417,0.0396,0.0377,0.0359,0.0383,0.0357,0.0355,0.036,0.0358,0.0358,0.0357,0,0,0.0479,0.0501,0.0504,0.0521,0.0525,0.0538,0.0552,0.0565,0.0585,0.0557,0.0577,0.0545,0.0523,0.0511,0.0482,0.0465,0.0456,0.0431,0.0429,0.0414,0.0411,0.0389,0.0384,0.0437,0.0437,0.0437,0.0388,0,0.0508,0.055,0.0551,0.0592,0.0613,0.0605,0.0627,0.0634,0.0632,0.0643,0.0606,0.0605,0.0555,0.0551,0.0526,0.0476,0.0454,0.0471,0.0386,0.0384,0.0365,0.0383,0.0403,0.036,0.0386,0.0386,0.0386,0,0.0541,0.0568,0.0615,0.0654,0.0663,0.0681,0.0719,0.0738,0.0743,0.0741,0.0726,0.0691,0.0664,0.0614,0.0538,0.055,0.0486,0.044,0.0436,0.0395,0.0359,0.0339,0.0355,0.0288,0.0383,0.0383,0.0383,0,0.0572,0.0613,0.0658,0.067,0.0706,0.0728,0.0748,0.0768,0.0802,0.0802,0.0821,0.0769,0.0755,0.0666,0.0561,0.055,0.0472,0.0444,0.0362,0.0359,0.0349,0.0346,0.0295,0.0386,0.0386,0.0386,0.0386,0,0.0607,0.0641,0.0676,0.07,0.0762,0.077,0.0834,0.0846,0.0878,0.0932,0.0874,0.0896,0.0767,0.0703,0.0592,0.0476,0.0492,0.0373,0.0348,0.037,0.0369,0.0287,0.0231,0.0384,0.0385,0.0385,0.0386,0,0.0636,0.0656,0.071,0.0757,0.0779,0.0824,0.0893,0.0939,0.0961,0.1028,0.103,0.0994,0.0914,0.0776,0.064,0.0529,0.0361,0.036,0.0392,0.0372,0.0229,0.0176,0.008,0.0043,0.0265,0.0264,0.0264,0,0.0654,0.0686,0.0755,0.0794,0.0817,0.0884,0.0935,0.0978,0.1033,0.1094,0.1129,0.1076,0.1058,0.0846,0.0637,0.0439,0.0347,0.0316,0.0294,0.023,0.0151,0.0121,0.0096,0.0303,0.0302,0.0302,0.0302,0,0.0691,0.0714,0.076,0.084,0.0899,0.0979,0.1051,0.1111,0.1174,0.1239,0.13,0.1291,0.1099,0.0917,0.064,0.0491,0.0271,0.0304,0.0233,0.0174,0.0143,0.0094,0.0322,0.03,0.03,0.03,0.03,0.03,0.0716,0.0755,0.0813,0.089,0.0963,0.1059,0.1132,0.1223,0.1334,0.1445,0.1422,0.1443,0.1179,0.0812,0.0601,0.0256,0.025,0.0168,0.0107,0.0083,0.0051,0.0273,0.0223,0.0223,0.0223,0.0222,0.0222,0,0.0741,0.0786,0.0858,0.0949,0.1026,0.1066,0.12,0.1288,0.143,0.1532,0.1593,0.1472,0.1154,0.0808,0.0335,0.0111,0.0035,-0.0003,-0.0031,-0.005,0.0151,0.0158,0.0098,0.0098,0.0098,0.0098,0.0098,0.0098,0.0756,0.0818,0.0855,0.098,0.1046,0.1165,0.1246,0.14,0.1507,0.1644,0.1662,0.1639,0.1373,0.0581,0.0067,-0.0058,-0.0192,-0.0221,-0.0296,-0.0147,-0.0134,-0.0123,-0.0126,-0.0245,-0.0246,-0.044,-0.0442,-0.0444]}],[{"header":{"parameterUnit":"m.s-1","parameterCategory":2,"la1":30.2991,"la2":30.254,"lo1":-89.0895,"lo2":-89.0444,"dy":0.0017,"dx":0.0017,"nx":28,"ny":28,"refTime":"2024-03-31T03:00:00:Z","depth":"2","parameterNumber":2,"parameterNumberName":"U-component_of_CURRENTS"},"data":[0,0,0,0,0,0,0,0,0,0,0,0,0,0,0,0,0,0,0,0,0,0,0,0,0,0,0,0,0,0,0,0,0,0,0,0,0,0,0,0,0,0,0,0,0,0,0,0,0,0,0,0,0,0,0,0,0,0,0.2021,0.2021,0,0.2046,0.2046,0.2046,0.2063,0.2063,0.2064,0.2064,0.2074,0.2074,0.2074,0,0,0,0,0,0,0,0,0,0,0,0,0,0.2007,0.2007,0.2021,0.2021,0.2022,0.2046,0.2046,0.2046,0.2063,0.2063,0.2064,0.2064,0.2074,0.2074,0.2074,0,0,0,0,0,0,0,0,0,0,0,0,0,0.2019,0.2007,0.2021,0.2035,0.2036,0.2046,0.2046,0.2046,0.2063,0.2063,0.2064,0.2064,0.2074,0.2074,0.2074,0.2064,0,0,0.2074,0.2074,0,0,0,0,0,0,0,0,0.2018,0.2019,0.2032,0.2034,0.2036,0.2054,0.2045,0.2052,0.2063,0.2051,0.2064,0.2065,0.2067,0.2067,0.2068,0.2064,0.2065,0.2074,0.2074,0.2074,0.2074,0,0,0,0,0,0,0,0.2017,0.2018,0.2029,0.2033,0.2035,0.2047,0.2048,0.2046,0.2054,0.2052,0.2054,0.2059,0.2067,0.2068,0.2069,0.2065,0.2074,0.2074,0.2074,0.2074,0.2121,0.2123,0,0,0,0,0,0,0.2017,0.2017,0.2028,0.203,0.203,0.2046,0.2048,0.2046,0.2054,0.2057,0.2059,0.206,0.2068,0.2069,0.2069,0.2105,0.2074,0.2074,0.2074,0.212,0.2122,0.2123,0,0,0,0,0,0,0.2016,0.2017,0.2027,0.2026,0.2029,0.2046,0.2043,0.2046,0.2063,0.206,0.2062,0.2075,0.2068,0.2069,0.2088,0.2104,0.2074,0.2073,0.2119,0.2121,0.2122,0.2146,0,0,0,0,0,0,0.2015,0.2016,0.202,0.2026,0.2029,0.2042,0.2043,0.2046,0.2066,0.2068,0.2074,0.2075,0.2069,0.2088,0.2088,0.2103,0.2073,0.2117,0.2119,0.2122,0.2144,0.2149,0.2153,0,0,0,0,0,0.2015,0.2018,0.2019,0.2021,0.203,0.2043,0.2046,0.2059,0.2066,0.2075,0.2086,0.2076,0.2104,0.2089,0.2088,0.2104,0.2116,0.2119,0.2122,0.2142,0.2148,0.2153,0,0,0,0,0,0,0.201,0.202,0.2022,0.2027,0.2039,0.2047,0.2059,0.2068,0.2083,0.2089,0.2087,0.2088,0.2112,0.2108,0.2092,0.2128,0.211,0.2113,0.2126,0.2131,0.2136,0.2147,0.2073,0,0,0,0,0,0.2011,0.2016,0.2027,0.203,0.204,0.2052,0.2062,0.207,0.2082,0.209,0.2096,0.2108,0.212,0.2127,0.2134,0.2148,0.2152,0.2161,0.2166,0.217,0.2181,0.2204,0.2212,0.2133,0.2133,0.2133,0,0,0.2008,0.2015,0.2017,0.203,0.2041,0.2054,0.2059,0.2078,0.2092,0.2088,0.2113,0.2122,0.2129,0.2149,0.216,0.2149,0.2194,0.2173,0.2176,0.2185,0.2208,0.2216,0.2222,0.2135,0.2134,0.2134,0,0,0.2004,0.2015,0.2019,0.2034,0.2055,0.2065,0.2075,0.2093,0.2109,0.2128,0.2137,0.2162,0.2169,0.2186,0.2193,0.2229,0.2218,0.2231,0.2259,0.2282,0.2288,0.2294,0.2302,0.2308,0.2232,0.2232,0.2232,0,0.2003,0.2006,0.2023,0.2035,0.2051,0.2072,0.2084,0.2103,0.2125,0.2144,0.214,0.2182,0.2189,0.2225,0.2243,0.2239,0.2245,0.2233,0.2287,0.2293,0.2298,0.2305,0.2311,0.2233,0.2233,0.2233,0.2233,0,0.2001,0.2011,0.2019,0.2039,0.2059,0.2075,0.2104,0.2128,0.2148,0.2165,0.2208,0.2223,0.225,0.2258,0.2261,0.2309,0.2298,0.2289,0.2269,0.2307,0.2312,0.2318,0.2235,0.2235,0.2234,0.2234,0,0,0.1979,0.2011,0.2014,0.2022,0.2065,0.2074,0.2115,0.2153,0.2178,0.2208,0.2241,0.2281,0.2299,0.231,0.2322,0.2347,0.2389,0.2339,0.2339,0.2339,0.2431,0.2373,0.2374,0.2387,0.2389,0.239,0.2415,0,0.1974,0.1989,0.2013,0.203,0.2043,0.2085,0.2116,0.2156,0.2192,0.2228,0.227,0.2301,0.2315,0.233,0.2363,0.2386,0.2409,0.2383,0.2401,0.2401,0.2339,0.2381,0.2186,0.2189,0.2421,0.2423,0.2423,0,0.1963,0.1977,0.1993,0.2025,0.2036,0.2054,0.211,0.2143,0.2212,0.2241,0.2295,0.2321,0.2385,0.2376,0.2446,0.2428,0.2439,0.2449,0.2449,0.2394,0.2356,0.2191,0.2191,0.2434,0.2433,0.2432,0.2431,0,0.1931,0.196,0.197,0.1983,0.2027,0.2048,0.2081,0.2148,0.2188,0.2257,0.2293,0.2355,0.24,0.2429,0.2474,0.246,0.2532,0.2507,0.2464,0.2459,0.2296,0.2275,0.2549,0.2548,0.2548,0.2548,0.2548,0,0.1912,0.1919,0.1954,0.1959,0.1979,0.2024,0.2063,0.2107,0.2183,0.2228,0.2302,0.2346,0.242,0.2471,0.2484,0.2504,0.2545,0.2481,0.2469,0.2299,0.2278,0.2494,0.2487,0.2549,0.2549,0.2549,0.2549,0,0.1873,0.1897,0.1908,0.1949,0.1962,0.198,0.2054,0.2081,0.2167,0.223,0.2257,0.2363,0.2426,0.2483,0.2535,0.2521,0.2532,0.2523,0.2317,0.228,0.2435,0.243,0.2466,0.2465,0.2463,0.2462,0.2461,0,0.1853,0.1853,0.1889,0.1896,0.1915,0.1953,0.1978,0.2062,0.2098,0.223,0.2248,0.2351,0.2392,0.246,0.2449,0.2453,0.2514,0.2269,0.2208,0.2446,0.2431,0.2427,0.2424,0.1998,0.1993,0.199,0.1986,0,0.1816,0.183,0.1839,0.1854,0.1872,0.1894,0.1939,0.1965,0.2064,0.2119,0.2187,0.2233,0.2315,0.2237,0.2266,0.224,0.225,0.2191,0.2497,0.2054,0.2007,0.1992,0.2003,0.1952,0.1956,0.1958,0.196,0.1961,0.1787,0.1782,0.1794,0.1797,0.1816,0.1818,0.1809,0.186,0.1897,0.1951,0.2056,0.2063,0.2092,0.2034,0.1973,0.1928,0.208,0.1975,0.1985,0.2,0.1946,0.1901,0.1814,0.1817,0.1819,0.1821,0.1823,0,0.1734,0.1731,0.1734,0.1725,0.1704,0.1747,0.1759,0.1726,0.1717,0.1801,0.1839,0.1709,0.1667,0.1699,0.1575,0.1571,0.1545,0.1505,0.1447,0.1483,0.1515,0.1434,0.1167,0.1165,0.1163,0.1161,0,0,0.1707,0.1678,0.1667,0.1607,0.1603,0.1552,0.1537,0.1502,0.1522,0.1496,0.1492,0.1626,0.1666,0.1409,0.1366,0.1244,0.1357,0.1196,0.1724,0.1695,0.1724,0.1791,0.1709,0,0,0,0,0]},{"header":{"parameterUnit":"m.s-1","parameterCategory":2,"la1":30.2991,"la2":30.254,"lo1":-89.0895,"lo2":-89.0444,"dy":0.0017,"dx":0.0017,"nx":28,"ny":28,"refTime":"2024-03-31T03:00:00:Z","depth":"2","parameterNumber":3,"parameterNumberName":"V-component_of_CURRENTS"},"data":[0,0,0,0,0,0,0,0,0,0,0,0,0,0,0,0,0,0,0,0,0,0,0,0,0,0,0,0,0,0,0,0,0,0,0,0,0,0,0,0,0,0,0,0,0,0,0,0,0,0,0,0,0,0,0,0,0,0,0.0104,0.0103,0,0.0067,0.0067,0.0066,0.0042,0.0042,0.0042,0.0042,-0.0007,-0.0008,-0.0009,0,0,0,0,0,0,0,0,0,0,0,0,0,0.0128,0.0127,0.0104,0.0103,0.0103,0.0067,0.0067,0.0066,0.0042,0.0042,0.0042,0.0042,-0.0006,-0.0008,-0.0009,0,0,0,0,0,0,0,0,0,0,0,0,0,0.0106,0.0127,0.0104,0.0087,0.0086,0.0068,0.0067,0.0066,0.0042,0.0042,0.0042,0.0042,-0.0006,-0.0008,-0.0009,-0.0019,0,0,-0.0015,-0.0016,0,0,0,0,0,0,0,0,0.0107,0.0105,0.009,0.0089,0.0087,0.006,0.0057,0.0037,0.0042,0.0058,0.0042,0.0042,0.0015,0.0012,0.0004,-0.0021,-0.0023,-0.0015,-0.0016,-0.0017,-0.0018,0,0,0,0,0,0,0,0.0109,0.0106,0.0088,0.009,0.0088,0.0073,0.007,0.0053,0.0037,0.0056,0.0055,0.0052,0.0014,0.0006,0.0002,-0.0024,-0.0015,-0.0017,-0.0018,-0.0019,-0.0046,-0.0046,0,0,0,0,0,0,0.0117,0.0108,0.009,0.0087,0.0098,0.0073,0.007,0.0068,0.0037,0.0033,0.0052,0.0051,0.0009,0.0005,0.0001,0.0008,-0.0017,-0.0019,-0.002,-0.0047,-0.0046,-0.0046,0,0,0,0,0,0,0.0117,0.0115,0.0091,0.0097,0.0094,0.0073,0.0071,0.0067,0.0064,0.0034,0.0029,0.0054,0.0009,0.0003,-0.0006,0.0005,-0.002,-0.0021,-0.0047,-0.0047,-0.0046,0.0011,0,0,0,0,0,0,0.0118,0.0116,0.0118,0.0098,0.0094,0.009,0.0071,0.0067,0.0062,0.0061,0.0034,0.0029,0.0008,-0.0003,-0.0008,0.0002,-0.0023,-0.0048,-0.0047,-0.0046,0.0008,0.0013,0.0017,0,0,0,0,0,0.0119,0.0127,0.0119,0.0116,0.0097,0.009,0.0087,0.0071,0.0063,0.0066,0.0048,0.003,-0.0003,-0.0005,-0.001,0.0,-0.0048,-0.0047,-0.0046,0.0006,0.0012,0.0017,0,0,0,0,0,0,0.0138,0.0124,0.0115,0.0118,0.0108,0.0087,0.0088,0.0077,0.0064,0.0063,0.0034,0.0028,0.0022,0.0003,0.0002,-0.0006,-0.0028,-0.0028,0.0014,0.0019,0.0023,0.004,-0.0024,0,0,0,0,0,0.0144,0.0145,0.0129,0.0132,0.0128,0.0109,0.0104,0.0095,0.008,0.0075,0.0056,0.0036,0.002,0.0014,-0.0005,-0.0007,-0.0026,-0.0005,-0.0,0.0004,0.0013,-0.0009,-0.0005,-0.0043,-0.0043,-0.0043,0,0,0.0151,0.0144,0.0145,0.0136,0.0126,0.013,0.0106,0.0105,0.0111,0.0071,0.0073,0.0049,0.0022,0.0018,0.0014,0.0006,0.0004,0.0005,0.0009,0.0016,-0.0007,-0.0004,-0.0,-0.0042,-0.0043,-0.0043,0,0,0.0172,0.0162,0.0172,0.0167,0.0159,0.0149,0.0152,0.0136,0.0131,0.0127,0.0101,0.0088,0.0063,0.005,0.0039,0.0057,0.0026,0.0048,0.0088,0.0067,0.007,0.0073,0.0055,0.0055,0.0054,0.0054,0.0054,0,0.0181,0.0191,0.0174,0.0182,0.0186,0.0162,0.0177,0.0168,0.0152,0.0154,0.0136,0.0104,0.008,0.008,0.0086,0.0068,0.0051,0.0072,0.0074,0.0076,0.0077,0.0058,0.0058,0.0057,0.0057,0.0057,0.0056,0,0.0208,0.0217,0.0223,0.0227,0.0229,0.0238,0.0227,0.0228,0.0217,0.0206,0.02,0.0164,0.0148,0.0136,0.0117,0.012,0.0102,0.0079,0.0063,0.0085,0.0063,0.0062,0.0061,0.006,0.0059,0.0059,0,0,0.0229,0.024,0.0244,0.0257,0.0255,0.0262,0.0275,0.0282,0.0297,0.0269,0.0283,0.025,0.0228,0.0215,0.0185,0.0167,0.0161,0.0135,0.0132,0.0123,0.0117,0.0102,0.0098,0.0138,0.0138,0.0138,0.0098,0,0.0257,0.0288,0.0286,0.032,0.0337,0.0326,0.0344,0.0346,0.034,0.0345,0.0308,0.0303,0.0259,0.0253,0.023,0.0179,0.016,0.0174,0.0093,0.009,0.0079,0.0097,0.0111,0.0077,0.0097,0.0097,0.0096,0,0.0286,0.0305,0.0345,0.0375,0.0383,0.0398,0.0427,0.0442,0.044,0.0435,0.0419,0.0384,0.0359,0.0314,0.0242,0.0252,0.0194,0.0148,0.0145,0.0112,0.0073,0.0057,0.0073,0.0094,0.0094,0.0094,0.0094,0,0.0314,0.0348,0.0386,0.0394,0.0421,0.0441,0.0458,0.0469,0.0497,0.0493,0.0506,0.0457,0.0444,0.0362,0.0266,0.0255,0.0181,0.015,0.0081,0.0079,0.0066,0.0063,0.0099,0.0099,0.0099,0.01,0.01,0,0.0346,0.0375,0.0403,0.0421,0.0477,0.048,0.0536,0.0544,0.0567,0.0611,0.0558,0.0573,0.0455,0.0396,0.0294,0.019,0.02,0.0096,0.0071,0.0086,0.0085,0.0078,0.0076,0.0098,0.0098,0.0099,0.0099,0,0.0372,0.0388,0.0433,0.0472,0.0492,0.0531,0.0591,0.0628,0.0644,0.0699,0.0702,0.0664,0.0591,0.0466,0.0338,0.0239,0.0129,0.0087,0.0114,0.0093,0.0034,0.0035,0.001,0.0009,0.0008,0.0008,0.0007,0,0.0387,0.0413,0.0473,0.0508,0.0528,0.0587,0.0632,0.0666,0.0711,0.0759,0.0789,0.074,0.0718,0.0524,0.0341,0.0165,0.0135,0.0052,0.003,0.0048,0.0026,0.0028,0.003,0.0033,0.0033,0.0032,0.0032,0,0.0417,0.0437,0.0476,0.0548,0.0601,0.0671,0.0734,0.0784,0.0836,0.0888,0.0936,0.0922,0.0752,0.0582,0.0338,0.021,0.0079,0.0043,0.0057,0.0055,0.0067,0.0046,0.0048,0.0031,0.0031,0.0031,0.0031,0.0031,0.0438,0.0471,0.0521,0.0591,0.0657,0.0742,0.0804,0.0877,0.0969,0.1048,0.1035,0.1023,0.0827,0.0523,0.0309,0.0077,0.0086,-0.0007,-0.0005,-0.0003,0.0008,0.0018,-0.0025,-0.0025,-0.0025,-0.0025,-0.0025,0,0.0461,0.0499,0.056,0.0642,0.0711,0.075,0.0864,0.0928,0.104,0.1113,0.1154,0.0972,0.0785,0.0554,0.0222,0.0023,0.0003,-0.0053,-0.0029,-0.0026,-0.0023,-0.0013,-0.0051,-0.0052,-0.0053,-0.0053,0,0,0.0473,0.0526,0.0557,0.0668,0.0731,0.0836,0.0907,0.101,0.1086,0.1158,0.1161,0.1133,0.086,0.0614,0.0343,0.0151,0.0105,0.0103,0.0146,0.021,0.0215,0.0023,0.0045,0,0,0,0,0]}],[{"header":{"parameterUnit":"m.s-1","parameterCategory":2,"la1":30.2991,"la2":30.254,"lo1":-89.0895,"lo2":-89.0444,"dy":0.0017,"dx":0.0017,"nx":28,"ny":28,"refTime":"2024-03-31T03:00:00:Z","depth":"4","parameterNumber":2,"parameterNumberName":"U-component_of_CURRENTS"},"data":[0,0,0,0,0,0,0,0,0,0,0,0,0,0,0,0,0,0,0,0,0,0,0,0,0,0,0,0,0,0,0,0,0,0,0,0,0,0,0,0,0,0,0,0,0,0,0,0,0,0,0,0,0,0,0,0,0,0,0.1135,0.1135,0,0.1171,0.1171,0.1172,0.1212,0.1213,0.1213,0.1214,0.127,0.1271,0.1272,0,0,0,0,0,0,0,0,0,0,0,0,0,0.1116,0.1116,0.1134,0.1135,0.1135,0.1171,0.1171,0.1172,0.1212,0.1213,0.1214,0.1214,0.127,0.1271,0.1272,0,0,0,0,0,0,0,0,0,0,0,0,0,0.1135,0.1116,0.1134,0.116,0.1163,0.1171,0.1171,0.1172,0.1212,0.1213,0.1214,0.1215,0.127,0.1271,0.1272,0.1262,0,0,0.1276,0.1277,0,0,0,0,0,0,0,0,0.1134,0.1136,0.1156,0.1158,0.1161,0.1188,0.1186,0.1203,0.1212,0.1193,0.1214,0.1215,0.1244,0.1248,0.1252,0.1265,0.1267,0.1277,0.1277,0.1278,0.1278,0,0,0,0,0,0,0,0.1133,0.1135,0.1149,0.1156,0.116,0.1176,0.1179,0.1189,0.1213,0.1195,0.1198,0.1202,0.1246,0.125,0.1253,0.1268,0.1277,0.1278,0.1279,0.1279,0.1362,0.1363,0,0,0,0,0,0,0.1127,0.1133,0.1147,0.115,0.115,0.1175,0.1179,0.1178,0.1213,0.1219,0.1201,0.1204,0.1247,0.1252,0.1256,0.132,0.1278,0.1279,0.128,0.136,0.1362,0.1364,0,0,0,0,0,0,0.1126,0.1128,0.1146,0.1143,0.1147,0.1174,0.1173,0.1179,0.1213,0.1217,0.1224,0.1233,0.1248,0.1254,0.1292,0.132,0.128,0.1281,0.1359,0.1361,0.1363,0.1401,0,0,0,0,0,0,0.1125,0.1127,0.114,0.1142,0.1147,0.1171,0.1173,0.1179,0.1212,0.1217,0.1246,0.1251,0.125,0.129,0.1293,0.1321,0.1282,0.1357,0.136,0.1362,0.1398,0.1404,0.1409,0,0,0,0,0,0.1125,0.1132,0.114,0.1143,0.1158,0.1171,0.1176,0.1198,0.1213,0.1232,0.1254,0.1251,0.1309,0.1292,0.1295,0.1324,0.1356,0.1359,0.1362,0.1395,0.1403,0.1409,0,0,0,0,0,0,0.1133,0.1137,0.1146,0.1156,0.1173,0.1179,0.1201,0.1214,0.1246,0.126,0.1265,0.1271,0.1315,0.1316,0.1297,0.1357,0.1333,0.1337,0.1357,0.1364,0.137,0.1384,0.1283,0,0,0,0,0,0.1139,0.1148,0.1156,0.1169,0.1179,0.1196,0.1211,0.1226,0.1246,0.1262,0.1282,0.1305,0.1325,0.1343,0.1358,0.1389,0.1394,0.1412,0.1418,0.1422,0.1438,0.1465,0.1475,0.1374,0.1374,0.1374,0,0,0.1146,0.1151,0.1158,0.1173,0.1189,0.1206,0.1208,0.1238,0.1264,0.1262,0.1313,0.1327,0.1338,0.1374,0.1394,0.1382,0.1453,0.1426,0.143,0.1443,0.147,0.1479,0.1488,0.1376,0.1375,0.1375,0,0,0.1156,0.1171,0.1182,0.1198,0.1225,0.1235,0.125,0.1273,0.13,0.1337,0.1348,0.1383,0.141,0.1428,0.1437,0.1485,0.1481,0.1492,0.1534,0.1561,0.1569,0.1577,0.1589,0.1597,0.1496,0.1496,0.1496,0,0.1171,0.1177,0.119,0.1206,0.1225,0.125,0.1271,0.1297,0.1335,0.1361,0.1363,0.1424,0.1435,0.1481,0.1502,0.1499,0.1509,0.1504,0.1568,0.1575,0.1583,0.1593,0.1602,0.1498,0.1498,0.1498,0.1498,0,0.1179,0.1199,0.121,0.1236,0.126,0.1284,0.1315,0.1353,0.1385,0.1408,0.147,0.1487,0.1526,0.1534,0.1535,0.1595,0.1584,0.1569,0.1548,0.1595,0.1603,0.1612,0.1501,0.1501,0.15,0.1499,0,0,0.1172,0.1208,0.1216,0.1233,0.128,0.1294,0.1349,0.1395,0.1433,0.148,0.1528,0.1575,0.1598,0.1611,0.162,0.1649,0.1704,0.164,0.164,0.1648,0.1761,0.1638,0.1635,0.1701,0.1703,0.1705,0.1744,0,0.118,0.1207,0.1228,0.1268,0.1285,0.133,0.1372,0.1424,0.147,0.1523,0.1568,0.1615,0.1622,0.1647,0.1682,0.1701,0.173,0.1695,0.1719,0.1719,0.1601,0.1642,0.1711,0.175,0.1752,0.1753,0.1754,0,0.1177,0.1197,0.1232,0.1278,0.1292,0.1326,0.14,0.1442,0.1524,0.1562,0.1629,0.166,0.1731,0.1716,0.179,0.177,0.178,0.1785,0.1786,0.1667,0.1612,0.1696,0.1769,0.1768,0.1767,0.1766,0.1765,0,0.115,0.1197,0.1225,0.1243,0.1301,0.1339,0.1383,0.1463,0.1511,0.16,0.1644,0.1717,0.1769,0.18,0.1834,0.182,0.1894,0.1864,0.1763,0.1754,0.1835,0.1827,0.1913,0.1913,0.1913,0.1913,0.1913,0,0.1131,0.1157,0.1219,0.1232,0.1278,0.133,0.1394,0.1449,0.1537,0.159,0.1672,0.1717,0.1798,0.1847,0.1855,0.1838,0.1915,0.1781,0.176,0.1849,0.1842,0.184,0.1831,0.1914,0.1914,0.1914,0.1913,0,0.1091,0.1132,0.1167,0.1237,0.1265,0.1302,0.1402,0.1439,0.1536,0.161,0.1645,0.175,0.1803,0.1858,0.1908,0.1856,0.1848,0.1822,0.1922,0.1904,0.1683,0.1676,0.1701,0.1697,0.1694,0.1691,0.1689,0,0.1068,0.1082,0.1163,0.1188,0.1225,0.1292,0.1331,0.1431,0.147,0.1608,0.1627,0.173,0.1781,0.1756,0.1817,0.1816,0.1796,0.1776,0.1724,0.1687,0.1665,0.1663,0.166,0.1684,0.1683,0.1682,0.1681,0,0.1025,0.1066,0.1095,0.1148,0.1194,0.1235,0.1302,0.1323,0.1429,0.1535,0.1568,0.1595,0.1652,0.1677,0.1698,0.1692,0.1775,0.1741,0.1747,0.1698,0.1666,0.1646,0.1648,0.1669,0.1671,0.1672,0.1673,0,0.0999,0.1009,0.1055,0.109,0.1143,0.1155,0.1201,0.1236,0.1289,0.1431,0.1437,0.1537,0.1634,0.1614,0.1629,0.1618,0.1584,0.1518,0.1535,0.1549,0.148,0.1415,0.1332,0,0,0,0,0,0.0964,0.0961,0.099,0.1015,0.1062,0.1091,0.1163,0.1209,0.1311,0.1294,0.1362,0.1399,0.1425,0.1477,0.1433,0.1559,0.1592,0.15,0.1526,0.1606,0.1619,0.1551,0,0,0,0,0,0,0.0938,0.0963,0.0962,0.0942,0.0945,0.0982,0.1022,0.1092,0.1085,0.1199,0.122,0.1306,0.1354,0.1437,0.1406,0.142,0.1403,0.1564,0.156,0.1598,0.161,0.1621,0.1556,0,0,0,0,0]},{"header":{"parameterUnit":"m.s-1","parameterCategory":2,"la1":30.2991,"la2":30.254,"lo1":-89.0895,"lo2":-89.0444,"dy":0.0017,"dx":0.0017,"nx":28,"ny":28,"refTime":"2024-03-31T03:00:00:Z","depth":"4","parameterNumber":3,"parameterNumberName":"V-component_of_CURRENTS"},"data":[0,0,0,0,0,0,0,0,0,0,0,0,0,0,0,0,0,0,0,0,0,0,0,0,0,0,0,0,0,0,0,0,0,0,0,0,0,0,0,0,0,0,0,0,0,0,0,0,0,0,0,0,0,0,0,0,0,0,0.0061,0.0061,0,0.0033,0.0032,0.0032,0.0014,0.0014,0.0014,0.0014,-0.0027,-0.0028,-0.0029,0,0,0,0,0,0,0,0,0,0,0,0,0,0.008,0.008,0.0061,0.0061,0.0061,0.0033,0.0032,0.0032,0.0014,0.0014,0.0014,0.0014,-0.0026,-0.0028,-0.0029,0,0,0,0,0,0,0,0,0,0,0,0,0,0.0063,0.008,0.0061,0.0049,0.0048,0.0033,0.0032,0.0032,0.0014,0.0014,0.0014,0.0014,-0.0026,-0.0028,-0.0029,-0.0038,0,0,-0.0034,-0.0035,0,0,0,0,0,0,0,0,0.0064,0.0063,0.0051,0.005,0.0048,0.0028,0.0024,0.0008,0.0014,0.0026,0.0014,0.0014,-0.0009,-0.0012,-0.0018,-0.004,-0.0042,-0.0034,-0.0035,-0.0036,-0.0036,0,0,0,0,0,0,0,0.0066,0.0064,0.0049,0.0051,0.0049,0.0038,0.0036,0.0021,0.0008,0.0025,0.0024,0.0022,-0.001,-0.0017,-0.0019,-0.0042,-0.0034,-0.0036,-0.0036,-0.0037,-0.0069,-0.0069,0,0,0,0,0,0,0.0072,0.0065,0.005,0.0048,0.0057,0.0038,0.0035,0.0034,0.0009,0.0005,0.0022,0.0021,-0.0014,-0.0018,-0.0021,-0.002,-0.0036,-0.0037,-0.0038,-0.0069,-0.0069,-0.0069,0,0,0,0,0,0,0.0072,0.0071,0.0051,0.0057,0.0053,0.0038,0.0036,0.0033,0.0029,0.0007,0.0003,0.0022,-0.0014,-0.0019,-0.0029,-0.0022,-0.0038,-0.0039,-0.0069,-0.0069,-0.0069,-0.0027,0,0,0,0,0,0,0.0073,0.0071,0.0073,0.0057,0.0053,0.0049,0.0036,0.0033,0.0029,0.0027,0.0005,0.0001,-0.0015,-0.0027,-0.0031,-0.0025,-0.0041,-0.0069,-0.0069,-0.0069,-0.0028,-0.0025,-0.0022,0,0,0,0,0,0.0074,0.0078,0.0074,0.0072,0.0057,0.0049,0.0046,0.0034,0.0029,0.003,0.0015,0.0002,-0.0028,-0.0028,-0.0033,-0.0027,-0.0069,-0.0069,-0.0069,-0.0029,-0.0026,-0.0022,0,0,0,0,0,0,0.0087,0.0076,0.0071,0.0072,0.0064,0.0046,0.0047,0.0038,0.0027,0.0026,0.0004,-0.0001,-0.0009,-0.0025,-0.0023,-0.0036,-0.0051,-0.0052,-0.002,-0.0016,-0.0013,0.0001,-0.0042,0,0,0,0,0,0.0092,0.0092,0.008,0.0081,0.0078,0.0063,0.0059,0.0052,0.0039,0.0034,0.0018,0.0001,-0.0012,-0.0019,-0.0034,-0.004,-0.0056,-0.0041,-0.0038,-0.0035,-0.0027,-0.0049,-0.0047,-0.0068,-0.0068,-0.0068,0,0,0.0097,0.0092,0.0092,0.0084,0.0076,0.0079,0.0061,0.0058,0.0062,0.0031,0.003,0.0011,-0.0012,-0.0018,-0.0023,-0.003,-0.0038,-0.0035,-0.0032,-0.0026,-0.0049,-0.0047,-0.0045,-0.0068,-0.0068,-0.0068,0,0,0.0111,0.0104,0.0111,0.0106,0.01,0.0092,0.0094,0.008,0.0076,0.007,0.005,0.0037,0.0015,0.0002,-0.0008,0.0001,-0.0023,-0.0006,0.0022,0.0001,0.0003,0.0004,-0.0012,-0.0012,-0.0003,-0.0003,-0.0003,0,0.0118,0.0125,0.0111,0.0117,0.012,0.0101,0.0112,0.0104,0.0089,0.0089,0.0076,0.0046,0.0026,0.002,0.0024,0.0009,-0.0006,0.0012,0.0006,0.0006,0.0007,-0.0009,-0.001,-0.0001,-0.0001,-0.0002,-0.0002,0,0.0135,0.0142,0.0146,0.0149,0.015,0.0155,0.0146,0.0145,0.0137,0.0127,0.0118,0.0089,0.0073,0.0062,0.0046,0.0042,0.0029,0.0011,-0.0,0.0012,-0.0007,-0.0008,0.0002,0.0001,0.0,-0.0,0,0,0.0149,0.0157,0.016,0.0171,0.0169,0.0173,0.0181,0.0184,0.0193,0.017,0.0177,0.0148,0.0131,0.0118,0.0093,0.0075,0.0065,0.005,0.0048,0.004,0.0022,0.0017,0.0014,0.0044,0.0044,0.0044,0.0008,0,0.0168,0.0189,0.0189,0.0214,0.0226,0.0219,0.0231,0.0231,0.0224,0.0223,0.0192,0.0186,0.0152,0.0147,0.0123,0.008,0.0061,0.0076,0.0006,0.0005,0.0003,0.0012,0.0044,0.0007,0.0006,0.0006,0.0006,0,0.0186,0.02,0.023,0.0253,0.0259,0.0272,0.0291,0.0301,0.0295,0.0289,0.0273,0.0245,0.022,0.0187,0.0122,0.0133,0.0085,0.0047,0.0044,0.0025,-0.0004,-0.001,0.0002,0.0002,0.0003,0.0003,0.0003,0,0.0203,0.0229,0.0258,0.0264,0.0286,0.0302,0.0316,0.0322,0.034,0.0333,0.034,0.0297,0.0284,0.0216,0.0138,0.013,0.0062,0.0038,-0.0011,-0.0012,-0.0016,-0.0017,-0.0007,-0.0007,-0.0007,-0.0007,-0.0007,0,0.0222,0.0244,0.027,0.0283,0.0326,0.0331,0.0371,0.0377,0.0392,0.0421,0.0379,0.0384,0.029,0.0238,0.0157,0.0072,0.0074,0.0,-0.002,0.0003,0.0004,-0.0017,-0.0018,-0.0008,-0.0008,-0.0007,-0.0007,0,0.0234,0.025,0.0284,0.0317,0.0335,0.0365,0.0413,0.0439,0.0451,0.0486,0.0488,0.0452,0.0388,0.0289,0.0182,0.0107,0.0018,-0.0014,0.0028,0.0009,-0.0047,-0.0045,-0.007,-0.007,-0.0071,-0.0071,-0.0071,0,0.024,0.026,0.0311,0.0339,0.0357,0.0404,0.044,0.0468,0.0497,0.0528,0.0545,0.0503,0.0464,0.0316,0.0201,0.0048,0.002,-0.003,-0.0047,-0.0035,-0.0053,-0.005,-0.0048,-0.0072,-0.0072,-0.0072,-0.0072,0,0.0252,0.0273,0.0303,0.036,0.0404,0.0459,0.0509,0.0537,0.0576,0.0588,0.0597,0.0526,0.0456,0.0328,0.0211,0.0097,-0.0002,-0.0035,-0.0035,-0.0052,-0.0038,-0.0054,-0.0052,-0.0074,-0.0073,-0.0073,-0.0073,0,0.0262,0.0285,0.0326,0.038,0.0438,0.0497,0.0524,0.0564,0.0599,0.0629,0.0631,0.0558,0.0516,0.0354,0.0245,0.0134,0.0097,0.0046,0.0041,0.0041,0.0076,0.011,0.011,0,0,0,0,0,0.027,0.0296,0.0341,0.04,0.0458,0.0497,0.0565,0.0587,0.0628,0.064,0.0638,0.0574,0.043,0.0368,0.0257,0.022,0.0066,0.0083,0.0001,-0.0081,-0.0079,-0.0058,0,0,0,0,0,0,0.0273,0.0313,0.0338,0.041,0.0453,0.0522,0.057,0.0598,0.0604,0.0627,0.0554,0.0531,0.0389,0.0493,0.0251,0.0218,0.0146,0.002,0.0017,-0.0082,-0.008,-0.0079,-0.0057,0,0,0,0,0]}]]